65P/Gunn (2017)

Japanese version
Home page
Updated on May 22, 2017

---------------------------------------------------------------------

* Profile

* Pictures

* Orbital Elements

Epoch 2017 Oct. 14.0 TT = JDT 2458040.5
T 2017 Oct. 16.79951 TT                                 MPCW
q   2.9100412            (2000.0)            P               Q
n   0.12895913     Peri.  213.53838     +0.09059857     +0.98586007
a   3.8800262      Node    62.01970     -0.87503796     +0.14638782
e   0.2499944      Incl.    9.18521     -0.47550022     -0.08155072
P   7.64
From 3768 observations 1997 June 11-2017 May 6, mean residual 0".8.
     Nongravitational parameters A1 = +1.31, A2 = +0.2564.

* Finding Charts

* Magnitudes Graph

        m1 = 6.8 + 5 log d + 12.0 log r

---------------------------------------------------------------------

The orbital elements are published on M.P.E.C. 2017-J52.
The charts are made with StellaNavigator Ver.8 (AstroArts).
The magnitudes graphs are made with Comet for Windows.

---------------------------------------------------------------------

Copyright(C) Seiichi Yoshida (comet@aerith.net). All rights reserved.